Theta_e
350 350 349 350 352 353 351 352 353 353 353 352 349 350 350 349 348 349 351 352 352 349 345 344 345 346 347 345 344 348 349 347 348 347 346 348 349 349 350 349 349 349 349 350 350 349 348 347 348 348 346 349 349 347 349 347 343 345 347 345 342 339 339
351 351 351 350 351 352 351 353 355 354 352 350 348 348 349 349 347 348 350 352 353 349 346 343 341 343 347 348 347 348 350 349 349 348 348 347 347 348 348 347 347 348 349 349 349 349 349 347 347 349 348 348 349 348 347 345 341 342 342 342 342 340 340
349 350 350 350 351 350 349 351 355 354 350 348 349 348 348 347 345 346 347 350 353 352 350 346 339 338 344 347 346 346 348 349 349 349 348 347 346 346 347 346 346 347 348 348 348 349 349 349 348 349 349 348 349 349 346 342 340 340 341 340 339 339 340
349 350 350 350 352 351 350 352 354 353 349 347 348 348 347 346 345 345 346 349 351 352 354 350 342 338 339 342 343 342 344 347 349 348 348 346 345 345 345 345 345 347 348 347 347 347 348 349 348 349 349 349 350 349 345 341 338 338 341 342 340 339 340
349 350 350 350 351 351 352 352 352 353 352 349 347 347 347 345 345 346 344 346 349 350 353 352 348 344 339 338 341 340 340 346 349 348 347 345 344 344 345 344 345 346 347 347 346 346 346 347 348 348 349 350 350 350 346 343 342 341 340 342 343 342 342
351 351 350 349 350 351 352 351 351 351 352 350 348 347 348 346 345 346 344 343 346 349 351 351 351 350 346 343 345 343 339 343 347 347 346 345 344 344 344 344 345 345 345 345 345 346 345 346 347 348 348 347 348 349 348 346 347 347 343 340 341 344 345
354 355 352 349 350 349 349 351 351 349 349 350 349 348 348 347 346 346 345 343 344 347 349 348 349 351 350 348 348 346 342 343 344 344 345 344 343 344 344 344 345 345 345 345 345 346 346 346 347 346 346 346 345 348 348 346 347 349 348 343 340 343 348
355 355 355 352 351 349 348 350 351 349 349 350 351 349 348 347 347 346 345 344 344 346 348 348 348 349 351 350 348 347 347 345 342 342 344 344 343 343 343 344 344 343 344 345 344 346 346 347 346 346 347 347 345 345 347 346 345 347 349 348 343 342 348
354 355 357 355 353 352 350 348 348 349 349 349 350 350 349 348 347 347 346 344 344 346 346 347 348 347 349 350 349 349 349 347 344 344 345 345 344 344 344 344 344 343 344 344 345 345 346 346 347 346 346 347 346 344 345 345 345 346 347 349 347 345 347
354 355 356 355 355 354 353 351 348 347 348 349 349 349 349 348 347 348 349 347 345 346 347 348 348 347 348 350 350 349 349 349 347 346 346 346 346 346 346 345 345 344 344 344 345 345 345 346 346 346 346 346 346 345 344 344 345 347 347 347 349 348 346
353 353 354 355 355 354 354 353 352 350 349 350 351 351 349 348 347 348 349 349 349 348 350 350 348 347 348 349 349 349 349 349 349 348 348 348 347 347 347 347 347 347 345 345 345 345 345 346 345 345 345 346 347 346 345 344 344 347 348 348 349 349 348
352 352 353 353 354 354 355 354 354 353 351 351 352 352 350 348 347 347 347 350 350 350 351 351 349 347 348 349 349 349 349 349 349 349 348 348 348 347 348 348 348 348 349 348 347 346 346 346 346 346 345 346 347 347 346 346 346 347 348 348 349 349 349
352 352 351 351 352 353 354 354 354 354 353 351 352 354 353 350 349 348 347 348 350 350 350 350 349 349 349 350 350 349 349 349 348 348 348 349 348 346 347 347 347 347 349 349 349 348 347 347 347 347 347 348 349 348 347 347 347 348 348 348 348 348 348
351 351 351 351 351 350 352 353 354 354 354 353 353 354 354 353 351 350 349 348 349 349 347 347 348 349 349 350 350 350 350 349 349 348 348 348 348 347 346 345 345 347 346 347 348 349 349 349 350 350 350 351 352 350 349 348 348 348 347 346 348 349 349
348 350 350 351 350 350 351 351 352 354 353 354 354 353 354 354 353 352 351 351 351 350 350 348 346 346 350 351 351 351 352 350 349 349 347 347 347 347 347 346 345 346 347 346 348 349 349 349 351 352 353 353 353 353 351 349 349 349 348 347 348 349 350
345 348 350 350 350 351 351 351 352 352 353 354 354 353 353 352 352 353 352 353 352 353 354 353 348 345 350 353 352 352 353 351 349 348 348 348 348 347 348 347 346 346 346 347 348 349 349 349 349 352 353 353 353 353 353 352 351 352 351 351 350 351 352
344 346 349 349 349 350 351 351 351 352 352 352 353 354 354 353 352 353 353 353 352 352 354 355 353 350 351 353 353 353 354 353 352 349 348 347 347 347 347 347 347 346 346 347 347 349 350 350 349 349 351 352 353 353 353 352 351 352 353 352 352 353 354
343 346 349 349 349 350 350 350 351 351 352 352 352 353 353 354 354 353 353 354 354 353 354 354 355 354 353 354 353 354 355 356 355 353 350 347 346 347 347 347 347 347 346 346 346 347 349 350 350 349 350 351 352 353 353 353 351 352 352 352 352 352 353
343 347 350 350 349 350 350 350 350 349 350 351 351 352 352 353 354 353 354 355 354 354 354 353 354 354 353 353 353 352 354 356 356 354 352 349 347 346 347 347 347 347 347 347 347 348 349 349 349 350 349 351 351 352 353 352 352 352 351 352 352 351 352
348 349 351 350 349 350 349 350 349 349 349 349 350 351 351 351 352 352 353 354 354 354 353 352 354 353 353 353 352 351 351 353 353 352 352 352 350 347 346 347 347 347 347 348 347 348 349 349 349 350 350 351 350 349 350 351 352 352 352 351 352 351 351
349 351 351 350 351 350 349 349 349 349 349 349 349 350 350 350 351 351 351 352 353 353 353 353 354 353 353 353 353 352 351 351 351 351 350 351 352 350 347 346 347 348 348 348 348 347 347 348 349 350 350 350 350 349 349 350 350 352 352 351 351 351 350
349 350 349 349 349 349 348 348 348 348 348 348 348 349 348 349 351 352 352 352 352 353 354 353 353 353 352 352 352 352 352 351 351 350 349 349 352 352 350 347 346 346 347 349 349 348 348 348 349 349 350 350 351 350 349 349 349 349 349 350 350 350 349
347 347 347 347 347 347 347 347 348 348 348 348 349 348 347 348 351 352 352 352 352 353 353 352 352 352 352 352 351 352 352 352 351 351 350 350 350 351 351 350 348 347 346 347 347 347 348 349 349 349 349 350 351 351 350 349 349 349 348 348 347 347 347
345 345 345 345 345 346 347 347 348 349 349 349 349 349 349 350 351 352 351 351 351 351 351 352 352 352 352 352 351 351 353 353 352 351 351 350 350 349 349 350 350 349 348 346 345 346 347 349 350 350 350 351 351 351 351 351 350 350 349 347 346 345 346
344 344 345 345 345 346 347 347 347 348 348 348 349 349 350 351 351 350 349 349 349 349 350 351 351 352 352 352 352 352 352 352 353 353 351 351 350 349 349 350 350 349 349 346 344 344 344 346 350 351 351 350 351 351 351 351 351 350 349 348 347 347 347
344 344 345 345 345 346 346 346 347 348 348 348 349 350 349 349 349 347 347 348 348 349 350 350 350 351 351 351 352 352 352 352 352 352 353 353 352 351 350 350 349 349 349 347 344 342 342 344 349 352 352 352 352 351 351 352 352 351 350 349 348 348 349
345 345 344 344 345 345 345 346 347 348 348 348 349 348 348 347 348 346 346 347 348 349 350 350 350 351 351 352 352 351 351 351 351 352 353 354 354 354 352 351 350 348 348 347 344 342 343 344 345 347 350 352 352 351 351 352 352 352 351 350 349 349 349
345 345 344 345 346 345 345 346 346 347 347 348 348 347 348 348 348 347 346 346 347 348 348 349 349 350 350 350 350 350 351 350 351 352 353 353 355 355 353 352 351 349 348 348 347 345 345 344 342 345 349 352 352 352 351 350 351 353 353 353 352 350 349
345 344 345 345 345 345 345 345 345 345 346 346 346 347 348 348 348 348 346 345 345 345 346 347 347 348 349 350 349 349 350 349 350 351 351 352 354 354 353 352 351 350 350 350 350 350 349 347 345 348 351 351 350 351 350 347 348 352 353 352 353 351 350
345 345 345 345 345 345 345 345 345 345 344 344 345 346 347 347 347 346 345 345 345 344 345 345 343 343 346 349 350 350 350 350 350 350 351 352 352 353 353 352 351 351 352 352 352 353 353 352 349 349 350 352 352 352 352 350 349 350 351 350 351 350 350
344 344 345 345 344 345 345 344 345 344 345 345 345 345 345 346 345 345 345 345 345 343 344 344 343 341 343 345 348 349 349 349 348 349 350 351 352 352 351 351 351 352 352 352 352 353 353 353 351 350 351 352 351 351 352 351 350 349 350 350 350 350 349
344 344 343 343 343 344 345 344 344 345 345 346 345 344 345 345 345 345 345 344 344 343 342 343 343 343 343 344 345 346 346 346 346 347 348 350 351 352 350 350 351 351 351 352 352 352 352 351 351 350 350 350 350 350 351 351 349 350 350 350 350 350 349
343 343 343 342 342 343 344 345 344 344 345 344 344 345 345 344 346 345 344 344 343 343 343 343 343 343 343 343 344 344 345 345 346 346 347 349 351 351 350 351 352 352 352 351 352 352 352 349 349 348 348 350 351 350 350 350 350 351 350 349 349 349 349
342 341 341 341 341 342 342 343 342 342 343 342 342 344 344 344 344 344 344 344 343 342 342 342 342 343 343 343 343 343 343 344 345 346 347 349 350 351 351 351 352 352 352 351 351 352 350 349 349 349 349 350 351 350 350 350 349 347 345 344 344 344 345
340 340 340 340 340 339 339 340 341 342 342 340 341 342 343 343 343 343 343 343 343 343 342 342 342 342 342 342 342 343 343 344 344 345 346 347 348 350 350 350 351 352 352 351 351 351 350 349 349 349 349 349 348 347 345 342 340 338 337 336 337 337 337
339 339 339 340 339 338 337 339 341 341 340 340 341 341 342 342 343 343 343 343 343 343 342 343 343 343 342 342 341 341 342 343 344 345 345 346 347 348 348 348 349 350 350 349 348 347 346 347 347 347 345 343 340 338 336 335 334 335 333 333 335 336 336
338 338 339 338 338 339 338 338 340 340 339 339 340 339 340 341 342 342 342 342 342 342 342 343 343 342 342 341 340 341 342 343 344 344 345 345 346 347 348 347 347 347 347 345 343 342 342 343 344 344 342 340 338 337 336 337 338 337 336 336 338 338 340
338 338 338 338 338 338 337 337 338 338 337 338 338 338 339 340 341 341 340 340 341 341 341 342 342 342 341 340 340 340 341 341 342 343 343 343 344 344 345 346 345 345 344 342 341 342 343 343 343 343 342 342 341 340 340 341 340 339 339 339 340 341 342
Wind_Speed
13 13 13 12 13 13 14 15 15 15 15 15 18 18 16 15 13 11 12 15 16 16 17 20 21 22 22 24 25 24 23 23 23 22 22 20 19 19 19 18 16 16 16 18 18 17 16 16 16 15 15 17 16 14 14 13 12 12 11 10 10 9 9
13 13 14 13 13 14 16 15 15 16 17 17 19 20 18 16 15 14 11 13 16 15 17 19 21 23 23 23 24 24 23 23 22 21 20 20 19 18 18 17 16 16 16 16 17 17 18 18 18 17 16 17 16 14 14 13 12 12 11 11 11 10 10
11 12 14 13 12 14 15 14 14 16 17 17 18 19 18 16 16 16 12 13 16 16 17 18 20 23 23 23 24 24 23 22 22 21 20 19 20 18 17 17 16 16 16 16 16 17 17 18 19 18 17 16 16 15 15 14 13 13 12 11 11 10 10
9 9 11 12 11 11 12 12 13 14 15 17 18 18 17 16 16 16 16 15 15 17 18 19 20 21 23 23 24 25 25 23 21 20 19 18 18 18 17 17 17 16 16 16 16 16 16 17 18 19 17 16 16 16 15 13 13 14 13 12 12 11 10
8 9 10 10 10 10 11 11 11 11 12 15 18 17 16 17 16 16 17 17 16 18 19 19 20 21 22 23 23 24 25 23 20 19 18 17 18 17 17 18 17 17 17 17 16 16 16 16 17 19 19 18 17 16 15 14 14 14 15 14 13 12 11
6 7 9 9 9 10 10 10 10 11 12 13 16 16 16 17 16 16 18 18 17 18 19 19 19 20 21 22 21 22 24 23 21 20 18 18 18 18 17 17 17 17 17 17 16 16 17 17 17 18 19 20 19 17 16 15 15 15 15 15 14 14 12
3 4 6 7 8 9 10 10 9 11 11 11 13 14 14 15 17 18 18 18 18 19 19 20 20 20 21 21 20 20 22 23 23 21 19 18 18 18 17 17 17 17 17 17 17 17 18 18 18 17 17 18 18 17 17 16 16 17 16 15 14 14 13
3 3 4 5 6 7 10 12 10 8 9 10 12 11 12 14 16 19 19 18 19 20 20 21 21 21 21 20 20 20 20 21 22 22 21 19 18 18 17 17 17 17 17 17 17 18 18 18 18 17 17 17 17 17 18 17 16 17 17 16 15 15 15
4 4 3 3 5 5 7 11 12 10 11 13 13 11 11 14 16 19 20 20 21 22 21 21 21 22 22 21 21 20 20 21 21 21 21 20 19 18 18 17 17 18 18 17 17 18 18 18 18 18 18 17 17 17 18 18 17 16 17 17 17 16 15
3 4 4 2 3 5 5 8 11 12 11 12 13 11 11 14 16 19 22 23 23 22 22 21 22 23 23 23 22 20 21 21 20 21 21 20 20 19 18 18 17 19 19 18 17 18 19 19 18 19 19 18 18 18 18 19 18 17 17 17 18 17 15
2 2 3 3 3 4 5 7 9 11 10 10 10 10 11 14 16 20 23 24 23 23 23 22 23 23 23 23 22 21 21 21 21 21 21 21 20 19 19 18 17 18 19 18 17 17 18 19 19 19 21 20 19 19 19 19 19 19 19 18 18 18 15
2 2 3 3 3 3 4 7 8 9 11 11 11 11 12 15 17 19 23 24 23 25 26 25 24 22 20 21 23 23 22 22 22 22 22 22 21 20 20 20 19 18 18 19 18 17 17 19 20 20 21 21 19 19 19 19 19 19 19 18 18 17 16
2 2 3 2 3 3 2 4 5 7 10 12 13 13 13 15 16 18 21 23 24 25 26 27 26 24 21 20 23 24 23 23 23 22 22 22 22 21 20 20 20 20 19 19 19 19 18 19 21 21 21 21 20 20 19 20 21 20 20 20 18 17 18
3 3 2 2 2 2 1 2 3 5 8 10 12 13 13 15 17 18 19 21 22 22 24 25 25 24 24 23 24 25 24 24 23 22 22 22 22 22 21 20 21 20 20 20 20 20 19 19 20 21 20 20 21 20 19 21 23 23 22 22 20 19 20
5 4 3 2 2 2 1 2 2 3 5 7 10 12 14 15 17 19 19 19 19 19 20 22 23 23 24 25 27 27 25 25 24 22 22 22 23 23 22 21 21 21 21 21 21 21 21 20 19 20 20 20 20 21 21 20 22 23 23 22 21 21 20
5 4 4 2 2 2 2 2 2 3 4 5 7 9 13 15 17 19 21 21 21 20 20 21 23 25 25 27 30 30 28 27 27 24 22 22 23 23 23 22 21 21 21 21 21 21 21 21 21 21 21 21 20 21 21 21 22 22 22 21 21 20 18
5 3 3 3 2 3 2 2 3 3 3 4 5 7 9 13 15 17 19 21 23 24 24 23 24 26 28 29 30 30 29 28 28 27 25 23 22 22 24 24 23 21 21 22 23 22 22 22 22 22 21 21 21 21 21 21 21 22 21 20 20 19 18
5 2 2 3 3 3 3 3 3 3 4 5 5 6 8 9 12 15 17 18 20 22 23 24 25 26 29 30 29 29 28 27 27 28 27 26 24 22 23 25 25 24 22 22 23 23 23 24 23 22 22 21 21 22 22 21 21 20 20 19 19 18 19
6 3 2 2 3 4 4 4 5 4 4 5 5 6 7 8 10 13 14 15 18 19 20 23 27 28 29 29 27 28 29 28 29 28 27 27 27 24 23 24 26 27 25 22 21 22 23 24 24 24 23 21 20 21 22 22 21 20 20 20 19 19 20
3 3 3 3 3 4 5 5 6 6 5 6 6 6 8 9 10 11 12 13 16 18 20 23 25 26 27 27 27 28 28 29 31 30 27 27 28 28 26 25 25 28 27 24 23 22 22 21 22 25 25 23 22 22 22 21 20 20 20 21 21 21 20
2 3 3 3 3 3 4 5 6 6 6 7 8 8 10 10 10 10 11 11 12 15 18 21 24 25 26 27 28 29 29 29 31 31 30 30 30 30 30 29 28 28 28 26 25 24 25 24 24 25 26 25 24 23 22 20 21 22 21 21 23 23 22
2 3 4 5 4 3 3 4 5 6 8 9 9 10 11 11 10 9 10 10 11 13 15 19 23 26 27 28 29 31 32 32 33 33 33 33 33 33 33 33 33 32 30 29 27 25 25 27 27 27 27 27 27 26 25 22 22 24 23 23 23 23 23
3 3 5 5 4 3 3 4 5 6 8 9 8 9 10 11 10 9 10 11 12 13 15 19 23 25 27 29 31 32 34 34 35 35 34 34 35 36 35 35 35 34 32 30 30 28 26 26 28 28 28 28 28 28 28 26 25 25 25 25 25 24 24
4 4 4 4 4 4 5 5 5 6 7 8 7 8 10 9 9 10 12 13 13 14 16 20 24 26 27 29 31 31 33 34 35 35 35 35 35 36 36 36 36 35 33 31 30 31 30 28 27 28 29 29 29 29 29 28 27 25 25 25 24 23 22
5 4 4 4 5 6 6 7 6 7 7 7 7 8 8 7 7 10 12 12 13 14 17 20 22 24 27 28 29 31 32 34 35 36 37 37 36 36 37 37 36 36 35 33 30 30 31 29 27 27 28 28 28 28 27 27 26 24 25 25 23 21 21
4 4 3 4 5 6 7 7 7 7 6 5 5 6 7 5 5 8 9 10 11 12 14 17 19 21 24 25 26 29 31 33 35 36 37 38 36 36 36 35 36 36 35 33 32 30 30 29 27 27 26 26 27 26 25 25 25 25 25 25 23 22 22
2 3 3 4 6 7 7 6 6 6 5 5 5 6 7 5 3 5 7 8 9 9 11 13 15 17 19 20 22 25 27 30 32 33 35 35 33 33 33 34 36 37 36 34 33 32 31 30 29 28 26 24 24 25 23 23 25 25 24 23 23 23 23
2 3 3 5 6 7 7 7 7 5 3 5 6 5 5 4 3 2 4 6 7 7 9 10 12 14 16 18 20 22 24 27 30 31 32 32 31 31 32 34 35 35 35 34 33 31 32 31 30 28 25 22 22 23 22 23 24 25 25 23 22 23 24
1 2 4 5 6 7 7 7 7 5 3 5 5 4 4 3 2 2 3 4 5 5 6 7 9 12 14 14 16 18 21 24 27 29 31 31 31 32 32 33 35 35 34 34 33 31 31 31 29 26 23 21 21 22 24 25 25 25 24 24 23 24 24
1 2 3 4 5 6 7 7 5 4 3 2 3 4 5 4 3 3 3 3 4 4 4 5 6 7 10 12 11 13 17 20 22 26 29 28 29 32 33 34 35 35 34 32 32 30 30 30 29 27 23 19 17 18 21 25 26 24 24 24 23 23 23
1 2 3 4 5 6 6 5 4 2 1 1 1 2 4 4 3 2 2 3 4 5 5 5 4 4 4 8 10 11 13 16 18 21 25 28 29 31 33 34 36 36 34 33 32 31 30 29 28 27 25 22 20 20 20 23 24 24 24 23 22 23 23
0 2 3 4 5 5 5 5 4 2 2 2 1 1 2 2 1 2 2 4 4 4 4 4 3 3 3 1 4 6 9 12 14 16 21 28 31 30 30 32 34 34 32 32 32 30 28 27 26 24 24 24 24 25 24 24 23 23 22 21 21 22 23
1 1 3 4 4 4 4 4 5 4 3 2 2 1 2 2 2 4 4 5 5 3 3 3 2 2 3 3 2 1 2 8 12 14 18 24 28 29 29 30 31 30 29 29 29 26 25 25 24 23 23 24 25 26 26 23 22 22 21 20 20 21 22
1 2 3 4 4 4 4 4 4 5 4 4 4 2 1 3 4 4 4 4 4 3 2 2 3 3 4 3 3 4 4 6 10 12 15 19 24 29 32 31 29 27 26 27 26 24 22 21 19 20 22 23 23 24 22 19 19 18 15 13 14 14 15
1 1 2 3 4 5 6 4 3 3 3 5 5 4 1 3 5 4 3 3 3 3 3 3 4 5 5 6 7 7 7 7 8 9 11 14 19 25 27 27 26 25 24 23 20 18 17 16 16 17 18 19 20 18 15 12 11 8 6 5 6 7 8
1 2 0 2 3 6 6 3 2 3 5 5 4 2 2 2 5 5 2 1 3 4 4 5 6 8 8 9 10 10 10 9 9 9 9 10 13 16 17 18 20 20 18 16 13 10 10 11 12 14 14 14 14 12 11 11 10 8 6 6 6 7 6
1 2 2 2 3 5 4 2 2 4 5 6 5 0 3 1 3 2 1 3 5 4 4 4 7 10 11 12 12 12 11 10 9 9 10 10 11 12 13 14 16 16 15 15 14 13 13 12 12 13 13 12 11 10 11 11 10 8 7 6 6 6 6
2 3 3 3 3 4 4 2 2 5 7 7 6 4 4 5 5 3 2 4 5 4 3 4 6 10 12 12 13 14 14 13 12 12 11 11 11 11 13 14 16 18 18 18 17 15 14 13 12 12 12 11 10 9 9 9 9 8 7 6 7 8 9
Wind_Direction
174 183 185 181 178 179 183 185 185 183 182 186 191 193 190 186 179 166 178 188 182 182 183 180 181 180 178 180 180 180 178 178 180 182 186 187 184 184 182 181 183 183 183 181 177 182 182 176 183 189 184 185 186 186 191 190 186 192 194 196 205 204 197
168 176 178 184 186 187 189 184 186 191 191 195 197 193 189 191 186 172 176 194 192 190 186 184 187 186 184 183 183 184 181 181 182 180 184 186 186 189 186 183 186 185 186 188 184 184 183 179 183 188 189 189 189 193 199 199 197 198 196 195 202 208 207
168 174 179 185 188 194 195 186 192 203 202 200 196 193 195 197 193 188 191 197 197 196 190 188 192 191 190 188 187 187 184 184 186 182 183 188 187 190 189 186 190 189 187 189 190 188 185 183 183 188 193 190 191 201 203 200 201 201 200 198 199 205 207
168 171 176 181 186 194 197 191 195 204 206 204 200 198 199 198 196 197 199 198 198 200 195 192 193 193 195 195 193 194 191 187 190 189 188 191 190 190 193 192 191 192 189 188 192 189 187 189 186 188 195 191 192 203 205 201 201 201 202 202 201 205 206
166 172 173 179 187 191 195 200 202 199 202 209 207 202 197 196 199 199 202 202 199 201 202 197 194 195 198 199 198 200 198 192 191 193 193 195 195 194 197 197 194 194 192 189 192 192 191 195 191 190 194 192 192 202 209 206 202 204 206 205 204 207 210
159 168 171 179 188 192 196 202 205 202 206 214 212 206 197 196 202 205 207 205 197 200 206 202 197 198 199 198 199 202 202 198 194 193 195 198 199 198 200 202 198 196 195 192 193 194 193 195 196 198 199 197 194 198 208 208 201 206 213 211 207 209 215
136 146 163 177 192 203 202 195 196 202 206 210 212 209 203 202 204 203 204 205 198 198 206 207 202 202 202 197 198 202 202 202 199 194 194 199 202 202 203 203 200 199 198 197 196 197 197 195 197 204 207 204 199 197 206 210 202 204 215 219 214 209 212
127 131 146 168 186 202 203 194 188 184 184 200 217 215 205 204 203 198 198 203 200 195 201 208 207 206 205 200 199 203 201 201 203 197 194 198 202 203 204 204 203 201 201 201 200 201 202 200 198 204 210 208 204 200 206 215 211 204 211 224 227 215 208
102 102 114 164 173 167 186 194 192 184 182 198 217 220 210 208 207 203 201 200 200 197 197 206 211 211 210 205 202 204 202 202 204 201 197 199 203 204 205 206 206 206 205 205 205 205 207 206 201 202 208 210 209 206 207 219 223 210 207 222 234 229 215
95 88 89 126 160 148 156 180 191 195 195 200 208 215 217 213 209 208 205 202 203 202 199 204 211 212 212 210 206 205 205 204 205 204 201 201 204 207 208 209 211 211 209 208 211 210 210 212 209 204 205 208 211 212 210 216 223 214 207 215 229 236 224
107 104 95 90 117 152 164 172 187 195 197 198 200 205 212 213 210 209 209 208 206 204 203 206 209 210 212 212 209 208 207 207 207 206 205 205 206 209 210 210 213 215 214 212 214 213 212 216 217 210 209 209 210 214 213 212 215 215 212 213 221 234 233
135 135 115 100 102 117 157 179 193 199 197 197 201 206 210 210 209 208 209 211 208 205 207 209 210 212 214 214 212 212 210 208 210 210 209 209 209 210 211 212 213 215 216 216 215 215 214 215 217 214 214 214 212 214 216 213 213 218 217 214 217 227 231
158 145 133 136 128 106 134 172 194 206 203 200 203 209 212 211 208 205 205 209 211 210 211 210 209 214 222 220 213 213 213 211 211 213 212 212 213 213 213 215 216 216 218 218 216 218 218 217 219 219 218 218 215 215 218 217 216 218 219 216 215 220 224
173 163 143 143 141 127 137 162 187 206 204 203 206 211 214 213 211 208 205 206 210 214 214 210 210 216 227 229 218 212 215 214 212 214 215 215 216 216 216 217 218 219 219 219 218 219 220 220 222 222 219 220 220 217 219 223 223 222 224 221 217 218 224
198 176 160 169 153 153 178 181 200 214 208 205 205 210 216 214 212 211 209 205 207 211 212 211 212 215 222 227 221 214 215 215 213 215 217 218 218 219 219 220 221 220 220 222 222 221 221 222 223 223 221 221 224 221 219 224 229 230 228 226 223 222 224
235 186 172 198 187 179 184 179 198 213 223 225 214 212 218 219 217 214 212 211 209 208 209 209 212 216 220 224 221 217 216 216 214 214 215 218 220 221 221 221 223 224 223 223 223 221 221 222 224 228 227 223 224 226 223 221 226 232 231 228 227 225 222
263 211 193 213 210 206 209 204 214 210 218 238 233 223 221 222 222 219 217 220 218 213 211 210 209 214 221 225 222 218 218 216 216 217 215 214 219 225 226 223 222 225 226 225 224 224 225 223 223 229 233 230 227 226 227 226 226 233 238 235 229 224 220
295 277 208 220 219 227 235 234 237 235 232 240 243 240 233 226 225 224 222 226 229 225 221 220 217 216 221 227 227 222 219 216 216 221 220 214 215 224 228 226 223 224 227 229 227 227 228 226 223 225 232 237 232 225 226 228 227 233 241 240 235 229 225
305 309 274 248 237 241 251 249 247 252 251 251 250 249 247 238 231 229 227 228 233 234 230 230 231 228 227 230 231 227 224 222 222 226 225 219 216 219 225 228 227 225 226 228 227 227 231 233 230 227 229 235 237 235 234 230 226 230 238 239 240 237 234
296 306 302 285 266 259 263 262 256 254 254 254 255 255 255 249 239 235 236 234 234 235 232 232 236 236 231 231 233 232 229 229 229 231 230 224 219 219 221 224 227 228 228 229 228 227 229 234 235 232 229 229 235 242 243 237 230 230 233 235 239 241 240
280 308 309 303 298 285 280 273 265 264 264 260 257 257 254 249 241 236 236 235 234 236 235 233 236 237 232 229 231 231 229 228 229 229 229 226 222 221 221 221 224 226 226 227 230 230 230 231 232 233 232 230 231 236 238 238 237 236 234 235 238 241 243
268 293 297 294 295 298 295 284 273 268 266 259 256 256 254 249 243 240 238 234 232 237 239 236 235 236 234 230 229 229 227 225 225 225 224 223 221 221 222 222 224 226 226 224 226 229 231 233 233 234 236 235 233 234 233 234 238 239 238 237 238 240 243
267 280 285 286 297 315 313 293 279 270 264 258 255 259 259 252 247 247 247 241 236 237 239 239 238 238 237 235 232 230 228 226 225 225 224 222 221 221 222 223 225 227 228 226 224 223 225 229 233 234 235 235 236 237 235 233 236 239 240 242 243 243 245
283 292 294 303 316 323 317 302 288 280 273 269 266 263 256 249 250 254 253 248 243 239 238 240 242 242 241 238 235 234 233 230 228 227 227 226 224 223 222 221 223 227 229 228 226 225 223 224 228 233 234 234 235 238 238 235 235 239 242 244 246 247 249
292 300 312 320 317 313 312 306 294 282 272 267 270 269 261 255 261 265 262 259 256 250 246 246 248 249 248 244 240 238 236 234 232 229 229 229 228 225 223 222 223 226 227 226 225 227 228 227 227 231 236 237 237 239 241 240 237 237 240 241 243 245 246
281 289 309 315 307 307 313 314 305 292 275 258 258 267 269 279 292 285 279 277 270 262 258 256 253 252 251 247 242 239 238 237 235 232 231 231 229 227 224 223 224 225 226 227 227 229 232 232 227 226 231 235 234 234 237 239 238 239 240 240 240 240 240
271 282 302 309 304 305 311 313 307 302 288 264 255 256 260 269 298 304 300 295 282 270 265 263 256 250 249 247 244 241 239 239 237 235 234 231 229 229 226 223 225 226 227 229 228 228 230 231 229 229 230 231 230 229 229 233 236 239 242 242 241 240 242
271 285 302 314 316 317 324 318 302 297 296 279 269 260 260 251 223 255 294 300 293 279 271 267 261 254 253 253 250 245 240 239 238 237 234 229 227 229 228 225 225 226 226 226 226 226 229 231 232 234 234 234 235 235 234 233 235 238 239 238 237 239 242
275 301 312 327 333 328 323 311 294 279 276 284 287 291 291 283 235 226 259 283 292 292 288 280 267 255 251 252 252 247 244 242 239 236 234 230 229 231 231 227 225 223 222 224 224 224 225 228 232 233 233 233 235 237 239 237 236 237 237 236 237 239 242
324 323 331 346 350 333 315 310 300 273 252 269 305 304 295 299 295 253 244 263 279 280 283 284 279 262 249 244 241 239 241 243 240 236 234 229 225 226 228 226 223 220 219 220 220 219 219 224 228 225 222 224 224 223 229 233 233 235 238 238 238 240 242
345 359 7 359 353 342 329 322 309 281 281 340 339 300 283 285 293 274 256 270 274 269 273 281 299 317 283 249 241 240 242 245 242 236 232 225 217 215 219 220 218 218 218 217 217 220 222 223 221 214 211 216 218 216 223 232 234 237 241 241 241 243 244
357 19 27 6 349 348 348 334 310 303 3 13 327 289 283 280 314 359 333 317 305 288 293 309 329 5 15 305 253 253 249 244 241 233 225 220 213 210 213 215 213 213 214 214 217 220 219 218 218 215 212 215 218 224 234 241 241 242 245 246 246 247 246
185 35 29 6 350 357 8 348 311 290 300 301 269 280 321 331 11 29 17 2 353 331 317 337 7 51 55 52 53 49 207 213 212 206 199 198 199 200 202 205 206 206 206 209 212 213 211 214 220 222 219 217 220 227 235 240 244 248 249 247 247 246 245
152 55 15 342 334 348 359 353 328 305 291 267 241 208 56 27 22 21 18 12 6 360 357 2 26 61 73 74 76 77 100 150 168 166 161 165 175 183 188 192 197 198 197 200 205 207 207 210 214 217 219 220 223 229 234 237 240 243 241 238 238 236 234
128 96 347 329 330 326 323 331 340 329 297 265 241 212 134 49 46 37 24 24 24 29 57 67 56 61 74 83 91 94 97 108 122 127 127 138 157 170 175 177 178 180 182 185 192 200 203 202 202 207 214 217 218 219 219 215 209 201 185 182 187 186 189
124 127 22 350 347 330 328 335 329 317 315 312 297 232 212 69 69 63 38 58 60 41 53 82 87 85 89 92 93 95 96 96 100 108 115 125 143 156 157 152 151 157 164 165 165 169 177 185 192 198 201 202 196 189 182 179 174 168 166 175 182 189 199
56 93 61 25 354 345 1 26 346 341 355 360 2 327 207 175 79 60 48 120 109 71 51 82 99 99 98 100 99 98 100 102 104 109 117 124 136 147 149 141 137 139 144 145 143 143 148 157 167 175 177 177 176 176 182 187 188 191 197 201 204 208 209
114 105 80 59 34 21 37 66 35 35 43 39 41 87 117 91 59 19 10 77 89 83 80 92 102 102 99 99 101 101 102 105 106 109 115 120 127 138 143 144 144 142 141 142 143 144 147 149 156 166 172 171 173 181 192 194 190 191 193 188 182 175 164